Madera, CA

5:20 AM PDT on August 19, 2017 (GMT -0700)
Madera Municipal

Weather History for KMAE - October, 2012

Change the Weather History Date:

Wednesday, October 24, 2012

  Actual Average Record
Temperature  
Mean Temperature 55 °F 61 °F  
Max Temperature 68 °F 76 °F 91 °F (2007)
Min Temperature 41 °F 47 °F 41 °F (2002)
Degree Days  
Heating Degree Days 10    
Month to date heating degree days 51  
Since 1 July heating degree days 51  
Cooling Degree Days 0    
Month to date cooling degree days 92  
Year to date cooling degree days 1736  
Growing Degree Days 4 (Base 50)    
Moisture  
Dew Point 42 °F    
Average Humidity 67    
Maximum Humidity 96    
Minimum Humidity 37    
Precipitation  
Precipitation 0.00 in 0.04 in 0.28 in (2004)
Month to date precipitation 0.11 0.49  
Year to date precipitation 6.33 8.78  
Since 1 July precipitation 0.11  
Snow  
Snow 0.00 in - - ()
Month to date snowfall 0.0  
Since 1 July snowfall 0.0  
Since 1 September snowfall 0.0  
Snow Depth 0.00 in    
Sea Level Pressure  
Sea Level Pressure 30.13 in    
Wind  
Wind Speed 3 mph (NW)    
Max Wind Speed 13 mph    
Max Gust Speed 20 mph    
Visibility 10 miles    
Events      
T = Trace of Precipitation, MM = Missing Value Source: NWS Daily Summary

Daily Weather History Graph

Daily Weather History Graph

Search for Another Location

Airport or City:

Trip Planner

Search our weather history database for the weather conditions in past years. The results will help you decide how hot, cold, wet, or windy it might be!

Date:

Astronomy

Oct. 24, 2012 Rise Set
Actual Time 7:17 AM PDT 6:11 PM PDT
Civil Twilight 6:50 AM PDT 6:37 PM PDT
Nautical Twilight 6:20 AM PDT 7:08 PM PDT
Astronomical Twilight 5:50 AM PDT 7:38 PM PDT
Moon 3:24 PM PDT (10/24) 2:24 AM PDT (10/24)
Length of Visible Light 11h 47m
Length of Day
10h 54m
Waxing Gibbous, 77% of the Moon is Illuminated
Oct 24
Waxing Gibbous
Oct 29
Full
Nov 6
Last Quarter
Nov 13
New
Nov 20
First Quarter

Hourly Weather History & Observations

Time (PDT) Temp. Windchill Dew Point Humidity Pressure Visibility Wind Dir Wind Speed Gust Speed Precip Events Conditions
12:53 AM 46.9 °F - 42.1 °F 83% 30.04 in 10.0 mi Calm Calm - N/A   Clear
1:53 AM 46.0 °F - 42.1 °F 86% 30.05 in 10.0 mi Calm Calm - N/A   Clear
2:53 AM 44.1 °F 41.5 °F 41.0 °F 89% 30.06 in 10.0 mi NNW 4.6 mph - N/A   Clear
3:53 AM 42.1 °F 37.7 °F 39.9 °F 92% 30.07 in 10.0 mi NW 6.9 mph - N/A   Clear
4:53 AM 43.0 °F 39.5 °F 41.0 °F 93% 30.08 in 10.0 mi NW 5.8 mph - N/A   Mostly Cloudy
5:53 AM 43.0 °F 41.3 °F 39.9 °F 89% 30.09 in 10.0 mi NNW 3.5 mph - N/A   Mostly Cloudy
6:53 AM 41.0 °F 39.0 °F 39.9 °F 96% 30.09 in 10.0 mi North 3.5 mph - N/A   Clear
7:53 AM 43.0 °F - 41.0 °F 93% 30.11 in 10.0 mi Calm Calm - N/A   Overcast
8:53 AM 48.0 °F - 45.0 °F 89% 30.14 in 10.0 mi Calm Calm - N/A   Overcast
9:53 AM 52.0 °F - 46.0 °F 80% 30.16 in 10.0 mi Calm Calm - N/A   Mostly Cloudy
10:53 AM 60.1 °F - 41.0 °F 49% 30.17 in 10.0 mi Calm Calm - N/A   Overcast
11:53 AM 61.0 °F - 41.0 °F 48% 30.17 in 10.0 mi NNW 3.5 mph - N/A   Overcast
12:53 PM 64.0 °F - 39.9 °F 41% 30.17 in 10.0 mi NW 8.1 mph - N/A   Overcast
2:53 PM 66.9 °F - 42.1 °F 40% 30.14 in 10.0 mi NW 8.1 mph - N/A   Clear
3:53 PM 66.9 °F - 39.9 °F 37% 30.13 in 10.0 mi NNW 8.1 mph - N/A   Clear
4:53 PM 66.9 °F - 39.0 °F 36% 30.13 in 10.0 mi NW 5.8 mph - N/A   Clear
5:53 PM 63.0 °F - 41.0 °F 45% 30.14 in 10.0 mi NW 4.6 mph - N/A   Clear
6:53 PM 55.0 °F - 43.0 °F 64% 30.14 in 10.0 mi West 5.8 mph - N/A   Clear
7:53 PM 55.0 °F - 43.0 °F 64% 30.16 in 10.0 mi Calm Calm - N/A   Clear
8:53 PM 53.1 °F - 43.0 °F 69% 30.17 in 10.0 mi NNE 3.5 mph - N/A   Clear
9:53 PM 54.0 °F - 43.0 °F 66% 30.17 in 10.0 mi Calm Calm - N/A   Mostly Cloudy
10:53 PM 53.1 °F - 45.0 °F 74% 30.18 in 10.0 mi NW 3.5 mph - N/A   Overcast
11:53 PM 51.1 °F - 44.1 °F 77% 30.18 in 10.0 mi Calm Calm - N/A   Scattered Clouds